| time (UTC) | temp F | wind direction | speed MPH | gust MPH | rain 1hr in | rain 24hr in | rain mn in | humidity % | barometer mb |
| 20260905213520 | 76 | 161 | 1.0 | 7.0 | 0.00 | 0.00 | 0.00 | 61 | 1022.3 |
| 20260905213016 | 77 | 225 | 1.0 | 3.0 | 0.00 | 0.00 | 0.00 | 60 | 1022.3 |
| 20260905212510 | 76 | 110 | 3.0 | 4.0 | 0.00 | 0.00 | 0.00 | 59 | 1022.2 |
| 20260905212010 | 77 | 164 | 3.0 | 4.0 | 0.00 | 0.00 | 0.00 | 58 | 1022.3 |
| 20260905211505 | 76 | 98 | 2.0 | 3.0 | 0.00 | 0.00 | 0.00 | 59 | 1022.4 |
| 20260905211001 | 76 | 83 | 2.0 | 2.0 | 0.00 | 0.00 | 0.00 | 59 | 1022.4 |
| 20260905210456 | 76 | 174 | 2.0 | 6.0 | 0.00 | 0.00 | 0.00 | 60 | 1022.3 |
| 20260905205955 | 76 | 73 | 2.0 | 3.0 | 0.00 | 0.00 | 0.00 | 60 | 1022.4 |
| 20260905205450 | 77 | 93 | 1.0 | 2.0 | 0.00 | 0.00 | 0.00 | 59 | 1022.6 |
| 20260905204949 | 76 | 109 | 3.0 | 4.0 | 0.00 | 0.00 | 0.00 | 59 | 1022.6 |
| 20260905204440 | 76 | 129 | 1.0 | 7.0 | 0.00 | 0.00 | 0.00 | 58 | 1022.6 |
| 20260905203939 | 76 | 175 | 2.0 | 3.0 | 0.00 | 0.00 | 0.00 | 58 | 1022.7 |
| 20260905203434 | 77 | 252 | 2.0 | 2.0 | 0.00 | 0.00 | 0.00 | 57 | 1022.6 |
| 20260905202930 | 77 | 159 | 3.0 | 7.0 | 0.00 | 0.00 | 0.00 | 59 | 1022.6 |
| 20260905202425 | 77 | 121 | 4.0 | 4.0 | 0.00 | 0.00 | 0.00 | 58 | 1022.8 |
| 20260905201920 | 77 | 197 | 1.0 | 2.0 | 0.00 | 0.00 | 0.00 | 60 | 1022.7 |
| 20260905201416 | 77 | 135 | 1.0 | 4.0 | 0.00 | 0.00 | 0.00 | 58 | 1022.6 |
| 20260905200915 | 77 | 154 | 1.0 | 3.0 | 0.00 | 0.00 | 0.00 | 58 | 1022.7 |
| 20260905200411 | 77 | 189 | 2.0 | 2.0 | 0.00 | 0.00 | 0.00 | 59 | 1022.7 |
| 20260905195909 | 77 | 94 | 3.0 | 6.0 | 0.00 | 0.00 | 0.00 | 59 | 1022.4 |
| 20260905195405 | 76 | 165 | 2.0 | 4.0 | 0.00 | 0.00 | 0.00 | 59 | 1022.3 |
| 20260905194900 | 77 | 185 | 4.0 | 6.0 | 0.00 | 0.00 | 0.00 | 59 | 1022.5 |
| 20260905194359 | 77 | 91 | 1.0 | 6.0 | 0.00 | 0.00 | 0.00 | 60 | 1022.5 |
| 20260905193854 | 77 | 212 | 3.0 | 3.0 | 0.00 | 0.00 | 0.00 | 61 | 1022.4 |
| 20260905193349 | 76 | 187 | 1.0 | 4.0 | 0.00 | 0.00 | 0.00 | 60 | 1022.4 |
| 20260905192844 | 76 | 115 | 2.0 | 6.0 | 0.00 | 0.00 | 0.00 | 61 | 1022.6 |
| 20260905192340 | 77 | 191 | 3.0 | 4.0 | 0.00 | 0.00 | 0.00 | 61 | 1022.7 |
| 20260905191839 | 76 | 222 | 4.0 | 7.0 | 0.00 | 0.00 | 0.00 | 63 | 1022.8 |
| 20260905191338 | 77 | 101 | 2.0 | 3.0 | 0.00 | 0.00 | 0.00 | 62 | 1022.9 |
| 20260905190837 | 76 | 103 | 1.0 | 1.0 | 0.00 | 0.00 | 0.00 | 63 | 1022.8 |
| 20260905190336 | 76 | 213 | 4.0 | 8.0 | 0.00 | 0.00 | 0.00 | 63 | 1022.8 |
| 20260905185835 | 76 | 202 | 2.0 | 3.0 | 0.00 | 0.00 | 0.00 | 63 | 1022.9 |
| 20260905185330 | 76 | 197 | 1.0 | 6.0 | 0.00 | 0.00 | 0.00 | 65 | 1022.8 |
| 20260905184824 | 76 | 169 | 1.0 | 1.0 | 0.00 | 0.00 | 0.00 | 65 | 1022.7 |
| 20260905184323 | 77 | 167 | 1.0 | 2.0 | 0.00 | 0.00 | 0.00 | 64 | 1022.9 |
| 20260905183821 | 76 | 193 | 1.0 | 3.0 | 0.00 | 0.00 | 0.00 | 64 | 1022.8 |
| 20260905183317 | 76 | 208 | 1.0 | 4.0 | 0.00 | 0.00 | 0.00 | 65 | 1022.9 |
| 20260905182812 | 76 | 104 | 5.0 | 7.0 | 0.00 | 0.00 | 0.00 | 64 | 1022.9 |
| 20260905182311 | 75 | 157 | 3.0 | 3.0 | 0.00 | 0.00 | 0.00 | 65 | 1023.0 |
| 20260905181807 | 76 | 232 | 3.0 | 4.0 | 0.00 | 0.00 | 0.00 | 63 | 1023.1 |
| 20260905181306 | 76 | 195 | 2.0 | 4.0 | 0.00 | 0.00 | 0.00 | 64 | 1022.9 |
| 20260905180801 | 76 | 208 | 1.0 | 2.0 | 0.00 | 0.00 | 0.00 | 65 | 1023.1 |
| 20260905180255 | 75 | 239 | 3.0 | 4.0 | 0.00 | 0.00 | 0.00 | 65 | 1023.2 |
| 20260905175750 | 75 | 204 | 4.0 | 6.0 | 0.00 | 0.00 | 0.00 | 66 | 1023.1 |
| 20260905175244 | 75 | 81 | 2.0 | 3.0 | 0.00 | 0.00 | 0.00 | 66 | 1023.2 |
| 20260905174739 | 75 | 110 | 4.0 | 4.0 | 0.00 | 0.00 | 0.00 | 65 | 1023.1 |
| 20260905174235 | 75 | 182 | 5.0 | 7.0 | 0.00 | 0.00 | 0.00 | 66 | 1023.0 |
| 20260905173731 | 75 | 87 | 3.0 | 7.0 | 0.00 | 0.00 | 0.00 | 67 | 1023.2 |
| 20260905173227 | 75 | 44 | 4.0 | 6.0 | 0.00 | 0.00 | 0.00 | 67 | 1023.2 |
| 20260905172727 | 75 | 158 | 3.0 | 6.0 | 0.00 | 0.00 | 0.00 | 67 | 1022.9 |
| 20260905172220 | 75 | 137 | 5.0 | 7.0 | 0.00 | 0.00 | 0.00 | 68 | 1023.1 |
| 20260905171716 | 75 | 69 | 2.0 | 3.0 | 0.00 | 0.00 | 0.00 | 68 | 1023.3 |
| 20260905171212 | 74 | 199 | 3.0 | 4.0 | 0.00 | 0.00 | 0.00 | 70 | 1023.4 |
| 20260905170710 | 73 | 106 | 2.0 | 4.0 | 0.00 | 0.00 | 0.00 | 70 | 1023.3 |
| 20260905170209 | 74 | 143 | 5.0 | 9.0 | 0.00 | 0.00 | 0.00 | 70 | 1023.6 |
| 20260905165709 | 74 | 162 | 3.0 | 6.0 | 0.00 | 0.00 | 0.00 | 71 | 1023.6 |
| 20260905165204 | 73 | 102 | 3.0 | 4.0 | 0.00 | 0.00 | 0.00 | 71 | 1023.6 |
| 20260905164654 | 73 | 173 | 3.0 | 3.0 | 0.00 | 0.00 | 0.00 | 71 | 1023.4 |
| 20260905164153 | 73 | 157 | 2.0 | 7.0 | 0.00 | 0.00 | 0.00 | 72 | 1023.7 |
| 20260905163649 | 73 | 191 | 3.0 | 6.0 | 0.00 | 0.00 | 0.00 | 71 | 1023.6 |
| 20260905163146 | 73 | 100 | 4.0 | 8.0 | 0.00 | 0.00 | 0.00 | 71 | 1023.5 |
| 20260905162642 | 73 | 164 | 2.0 | 7.0 | 0.00 | 0.00 | 0.00 | 73 | 1023.4 |
| 20260905162140 | 73 | 112 | 3.0 | 4.0 | 0.00 | 0.00 | 0.00 | 72 | 1023.4 |
| 20260905161635 | 73 | 142 | 3.0 | 4.0 | 0.00 | 0.00 | 0.00 | 74 | 1023.5 |
| 20260905161133 | 72 | 82 | 3.0 | 6.0 | 0.00 | 0.00 | 0.00 | 74 | 1023.4 |
| 20260905160632 | 72 | 90 | 2.0 | 3.0 | 0.00 | 0.00 | 0.00 | 74 | 1023.5 |
| 20260905160126 | 72 | 112 | 3.0 | 6.0 | 0.00 | 0.00 | 0.00 | 75 | 1023.5 |
| 20260905155621 | 73 | 104 | 3.0 | 7.0 | 0.00 | 0.00 | 0.00 | 73 | 1023.4 |
| 20260905155120 | 71 | 184 | 2.0 | 6.0 | 0.00 | 0.00 | 0.00 | 76 | 1023.4 |
| 20260905154619 | 71 | 115 | 1.0 | 4.0 | 0.00 | 0.00 | 0.00 | 76 | 1023.1 |
| 20260905154115 | 71 | 189 | 2.0 | 7.0 | 0.00 | 0.00 | 0.00 | 77 | 1023.2 |
| 20260905153611 | 71 | 117 | 2.0 | 4.0 | 0.00 | 0.00 | 0.00 | 77 | 1023.3 |
| 20260905153106 | 71 | 156 | 4.0 | 6.0 | 0.00 | 0.00 | 0.00 | 77 | 1023.3 |
| 20260905152601 | 70 | 188 | 1.0 | 3.0 | 0.00 | 0.00 | 0.00 | 78 | 1023.1 |
| 20260905152055 | 71 | 215 | 3.0 | 6.0 | 0.00 | 0.00 | 0.00 | 77 | 1023.3 |
| 20260905151551 | 70 | 172 | 1.0 | 6.0 | 0.00 | 0.00 | 0.00 | 78 | 1023.3 |
| 20260905151046 | 70 | 73 | 2.0 | 4.0 | 0.00 | 0.00 | 0.00 | 77 | 1023.2 |
| 20260905150541 | 70 | 104 | 2.0 | 6.0 | 0.00 | 0.00 | 0.00 | 78 | 1023.2 |
| 20260905150039 | 70 | 166 | 3.0 | 6.0 | 0.00 | 0.00 | 0.00 | 78 | 1023.3 |
| 20260905145532 | 69 | 134 | 1.0 | 3.0 | 0.00 | 0.00 | 0.00 | 78 | 1023.1 |
| 20260905145032 | 70 | 176 | 2.0 | 6.0 | 0.00 | 0.00 | 0.00 | 79 | 1023.1 |
| 20260905144527 | 69 | 124 | 2.0 | 7.0 | 0.00 | 0.00 | 0.00 | 79 | 1023.3 |
| 20260905144026 | 69 | 165 | 1.0 | 3.0 | 0.00 | 0.00 | 0.00 | 81 | 1023.2 |
| 20260905143525 | 69 | 96 | 5.0 | 8.0 | 0.00 | 0.00 | 0.00 | 79 | 1023.2 |
| 20260905143021 | 68 | 148 | 1.0 | 3.0 | 0.00 | 0.00 | 0.00 | 81 | 1023.2 |
| 20260905142519 | 68 | 148 | 2.0 | 7.0 | 0.00 | 0.00 | 0.00 | 81 | 1023.2 |
| 20260905142009 | 69 | 194 | 1.0 | 2.0 | 0.00 | 0.00 | 0.00 | 80 | 1023.2 |
| 20260905141508 | 68 | 148 | 0.0 | 1.0 | 0.00 | 0.00 | 0.00 | 80 | 1023.3 |
| 20260905141006 | 68 | 140 | 1.0 | 2.0 | 0.00 | 0.00 | 0.00 | 82 | 1023.2 |
| 20260905140500 | 68 | 233 | 1.0 | 2.0 | 0.00 | 0.00 | 0.00 | 82 | 1023.1 |
| 20260905135958 | 67 | 149 | 1.0 | 4.0 | 0.00 | 0.00 | 0.00 | 84 | 1023.1 |
| 20260905135455 | 67 | 108 | 2.0 | 3.0 | 0.00 | 0.00 | 0.00 | 85 | 1023.0 |
| 20260905134950 | 67 | 169 | 2.0 | 4.0 | 0.00 | 0.00 | 0.00 | 85 | 1022.8 |
| 20260905134449 | 67 | 155 | 1.0 | 2.0 | 0.00 | 0.00 | 0.00 | 85 | 1022.9 |
| 20260905133948 | 66 | 108 | 3.0 | 4.0 | 0.00 | 0.00 | 0.00 | 85 | 1022.8 |
| 20260905133444 | 67 | 144 | 1.0 | 3.0 | 0.00 | 0.00 | 0.00 | 85 | 1022.5 |
| 20260905132943 | 66 | 151 | 2.0 | 4.0 | 0.00 | 0.00 | 0.00 | 86 | 1022.5 |
| 20260905132438 | 66 | 158 | 2.0 | 6.0 | 0.00 | 0.00 | 0.00 | 85 | 1022.4 |
| 20260905131933 | 67 | 92 | 3.0 | 3.0 | 0.00 | 0.00 | 0.00 | 84 | 1022.6 |
| 20260905131430 | 66 | 171 | 1.0 | 2.0 | 0.00 | 0.00 | 0.00 | 85 | 1022.5 |
| 20260905130929 | 65 | 140 | 2.0 | 3.0 | 0.00 | 0.00 | 0.00 | 86 | 1022.5 |
| 20260905130423 | 65 | 93 | 4.0 | 4.0 | 0.00 | 0.00 | 0.00 | 86 | 1022.4 |
| 20260905125923 | 66 | 79 | 2.0 | 3.0 | 0.00 | 0.00 | 0.00 | 85 | 1022.3 |
| 20260905125418 | 65 | 164 | 1.0 | 1.0 | 0.00 | 0.00 | 0.00 | 87 | 1022.3 |
| 20260905124913 | 64 | 153 | 3.0 | 3.0 | 0.00 | 0.00 | 0.00 | 88 | 1022.1 |
| 20260905124410 | 64 | 193 | 1.0 | 1.0 | 0.00 | 0.00 | 0.00 | 91 | 1022.1 |
| 20260905123910 | 61 | 46 | 1.0 | 1.0 | 0.00 | 0.00 | 0.00 | 97 | 1022.2 |
| 20260905123407 | 61 | 46 | 1.0 | 2.0 | 0.00 | 0.00 | 0.00 | 97 | 1022.2 |
| 20260905122902 | 61 | 201 | 1.0 | 2.0 | 0.00 | 0.00 | 0.00 | 98 | 1022.2 |
| 20260905122400 | 60 | 182 | 0.0 | 1.0 | 0.00 | 0.00 | 0.00 | 99 | 1022.1 |
| 20260905121856 | 60 | 162 | 1.0 | 2.0 | 0.00 | 0.00 | 0.00 | 99 | 1022.1 |
| 20260905121353 | 60 | 190 | 0.0 | 2.0 | 0.00 | 0.00 | 0.00 | 99 | 1022.0 |
| 20260905120851 | 60 | 191 | 0.0 | 1.0 | 0.00 | 0.00 | 0.00 | 99 | 1021.9 |
| 20260905120346 | 59 | 186 | 0.0 | 2.0 | 0.00 | 0.00 | 0.00 | 99 | 1022.0 |
| 20260905115841 | 59 | 160 | 1.0 | 1.0 | 0.00 | 0.00 | 0.00 | 99 | 1021.8 |
| 20260905115341 | 59 | 88 | 2.0 | 2.0 | 0.00 | 0.00 | 0.00 | 99 | 1021.7 |
| 20260905114840 | 59 | 173 | 0.0 | 0.0 | 0.00 | 0.00 | 0.00 | 99 | 1021.5 |
| 20260905114334 | 59 | 79 | 1.0 | 2.0 | 0.00 | 0.00 | 0.00 | 99 | 1021.8 |
| 20260905113833 | 57 | 219 | 0.0 | 0.0 | 0.00 | 0.00 | 0.00 | 99 | 1021.8 |
| 20260905113329 | 57 | 219 | 0.0 | 0.0 | 0.00 | 0.00 | 0.00 | 99 | 1021.5 |
| 20260905112824 | 57 | 219 | 0.0 | 0.0 | 0.00 | 0.00 | 0.00 | 99 | 1021.7 |
| 20260905112319 | 57 | 219 | 0.0 | 0.0 | 0.00 | 0.00 | 0.00 | 99 | 1021.4 |
| 20260905111814 | 57 | 219 | 0.0 | 0.0 | 0.00 | 0.00 | 0.00 | 99 | 1021.7 |
| 20260905111308 | 57 | 219 | 0.0 | 0.0 | 0.00 | 0.00 | 0.00 | 99 | 1021.9 |
| 20260905110808 | 57 | 220 | 0.0 | 0.0 | 0.00 | 0.00 | 0.00 | 99 | 1021.7 |
| 20260905110302 | 57 | 220 | 0.0 | 0.0 | 0.00 | 0.00 | 0.00 | 99 | 1021.5 |
| 20260905105758 | 57 | 220 | 0.0 | 0.0 | 0.00 | 0.00 | 0.00 | 99 | 1021.5 |
| 20260905105257 | 57 | 220 | 0.0 | 0.0 | 0.00 | 0.00 | 0.00 | 99 | 1021.4 |
| 20260905104751 | 57 | 220 | 0.0 | 0.0 | 0.00 | 0.00 | 0.00 | 99 | 1021.8 |
| 20260905104248 | 57 | 220 | 0.0 | 0.0 | 0.00 | 0.00 | 0.00 | 99 | 1021.7 |
| 20260905103747 | 57 | 220 | 0.0 | 0.0 | 0.00 | 0.00 | 0.00 | 99 | 1021.5 |
| 20260905103243 | 57 | 220 | 0.0 | 0.0 | 0.00 | 0.00 | 0.00 | 99 | 1021.7 |
| 20260905102739 | 57 | 220 | 0.0 | 0.0 | 0.00 | 0.00 | 0.00 | 99 | 1021.5 |
| 20260905102235 | 58 | 220 | 0.0 | 0.0 | 0.00 | 0.00 | 0.00 | 99 | 1021.5 |
| 20260905101734 | 58 | 220 | 0.0 | 0.0 | 0.00 | 0.00 | 0.00 | 99 | 1021.4 |
| 20260905101233 | 59 | 220 | 0.0 | 0.0 | 0.00 | 0.00 | 0.00 | 98 | 1021.8 |
| 20260905100729 | 60 | 188 | 0.0 | 2.0 | 0.00 | 0.00 | 0.00 | 99 | 1021.8 |
| 20260905100224 | 60 | 188 | 0.0 | 2.0 | 0.00 | 0.00 | 0.00 | 98 | 1021.4 |
| 20260905095724 | 60 | 189 | 0.0 | 1.0 | 0.00 | 0.00 | 0.00 | 99 | 1021.4 |
| 20260905095223 | 60 | 177 | 2.0 | 2.0 | 0.00 | 0.00 | 0.00 | 99 | 1021.4 |
| 20260905094718 | 60 | 200 | 0.0 | 1.0 | 0.00 | 0.00 | 0.00 | 99 | 1021.5 |
| 20260905094213 | 60 | 149 | 1.0 | 2.0 | 0.00 | 0.00 | 0.00 | 99 | 1021.5 |
| 20260905093713 | 60 | 173 | 2.0 | 3.0 | 0.00 | 0.00 | 0.00 | 99 | 1021.3 |
| 20260905093209 | 60 | 112 | 1.0 | 2.0 | 0.00 | 0.00 | 0.00 | 99 | 1021.4 |
| 20260905092704 | 60 | 130 | 1.0 | 3.0 | 0.00 | 0.00 | 0.00 | 99 | 1021.3 |
| 20260905092200 | 60 | 108 | 0.0 | 2.0 | 0.00 | 0.00 | 0.00 | 99 | 1021.4 |
| 20260905091659 | 60 | 118 | 1.0 | 2.0 | 0.00 | 0.00 | 0.00 | 99 | 1021.2 |
| 20260905091200 | 60 | 113 | 1.0 | 3.0 | 0.00 | 0.00 | 0.00 | 99 | 1021.2 |
| 20260905090659 | 60 | 162 | 1.0 | 2.0 | 0.00 | 0.00 | 0.00 | 99 | 1021.3 |
| 20260905090155 | 60 | 145 | 2.0 | 3.0 | 0.00 | 0.00 | 0.00 | 99 | 1021.0 |
| 20260905085653 | 59 | 154 | 2.0 | 3.0 | 0.00 | 0.00 | 0.00 | 99 | 1021.2 |
| 20260905085149 | 60 | 146 | 2.0 | 4.0 | 0.00 | 0.00 | 0.00 | 99 | 1021.2 |
| 20260905084648 | 60 | 173 | 3.0 | 4.0 | 0.00 | 0.00 | 0.00 | 98 | 1021.1 |
| 20260905084143 | 60 | 162 | 2.0 | 3.0 | 0.00 | 0.00 | 0.00 | 98 | 1021.2 |
| 20260905083638 | 60 | 123 | 3.0 | 4.0 | 0.00 | 0.00 | 0.00 | 97 | 1021.0 |
| 20260905083135 | 60 | 110 | 2.0 | 6.0 | 0.00 | 0.00 | 0.00 | 97 | 1021.2 |
| 20260905082630 | 60 | 129 | 1.0 | 4.0 | 0.00 | 0.00 | 0.00 | 96 | 1021.4 |
| 20260905082125 | 60 | 143 | 2.0 | 7.0 | 0.00 | 0.00 | 0.00 | 95 | 1021.1 |
| 20260905081619 | 60 | 150 | 2.0 | 3.0 | 0.00 | 0.00 | 0.00 | 95 | 1021.4 |
| 20260905081114 | 60 | 158 | 2.0 | 2.0 | 0.00 | 0.00 | 0.00 | 94 | 1021.3 |
| 20260905080614 | 61 | 89 | 3.0 | 6.0 | 0.00 | 0.00 | 0.00 | 94 | 1021.2 |
| 20260905080109 | 60 | 119 | 3.0 | 4.0 | 0.00 | 0.00 | 0.00 | 93 | 1021.3 |
| 20260905075608 | 60 | 67 | 2.0 | 3.0 | 0.00 | 0.00 | 0.00 | 94 | 1021.1 |
| 20260905075108 | 60 | 100 | 2.0 | 3.0 | 0.00 | 0.00 | 0.00 | 94 | 1021.1 |
| 20260905074607 | 60 | 127 | 2.0 | 4.0 | 0.00 | 0.00 | 0.00 | 95 | 1021.1 |
| 20260905074103 | 60 | 124 | 1.0 | 2.0 | 0.00 | 0.00 | 0.00 | 95 | 1021.2 |
| 20260905073558 | 60 | 144 | 1.0 | 3.0 | 0.00 | 0.00 | 0.00 | 94 | 1021.3 |
| 20260905073054 | 60 | 158 | 1.0 | 2.0 | 0.00 | 0.00 | 0.00 | 93 | 1021.2 |
| 20260905072553 | 61 | 164 | 1.0 | 3.0 | 0.00 | 0.00 | 0.00 | 93 | 1021.2 |
| 20260905072048 | 61 | 166 | 0.0 | 1.0 | 0.00 | 0.00 | 0.00 | 92 | 1021.2 |
| 20260905071545 | 61 | 115 | 1.0 | 3.0 | 0.00 | 0.00 | 0.00 | 92 | 1021.2 |
| 20260905071040 | 61 | 184 | 1.0 | 2.0 | 0.00 | 0.00 | 0.00 | 91 | 1021.2 |
| 20260905070535 | 61 | 99 | 2.0 | 6.0 | 0.00 | 0.00 | 0.00 | 91 | 1021.0 |
| 20260905070031 | 61 | 185 | 1.0 | 3.0 | 0.00 | 0.00 | 0.00 | 92 | 1021.1 |
| 20260905065529 | 62 | 154 | 2.0 | 3.0 | 0.00 | 0.00 | 0.00 | 91 | 1020.9 |
| 20260905065024 | 62 | 115 | 2.0 | 3.0 | 0.00 | 0.00 | 0.00 | 90 | 1021.1 |
| 20260905064519 | 61 | 144 | 1.0 | 2.0 | 0.00 | 0.00 | 0.00 | 90 | 1020.9 |
| 20260905064014 | 62 | 169 | 1.0 | 3.0 | 0.00 | 0.00 | 0.00 | 90 | 1021.0 |
| 20260905063513 | 62 | 108 | 2.0 | 4.0 | 0.00 | 0.00 | 0.00 | 90 | 1020.9 |
| 20260905063010 | 62 | 173 | 2.0 | 6.0 | 0.00 | 0.00 | 0.00 | 90 | 1021.0 |
| 20260905062509 | 62 | 148 | 1.0 | 3.0 | 0.00 | 0.00 | 0.00 | 90 | 1021.0 |
| 20260905062004 | 62 | 199 | 2.0 | 6.0 | 0.00 | 0.00 | 0.00 | 90 | 1021.1 |
| 20260905061459 | 62 | 156 | 3.0 | 6.0 | 0.00 | 0.00 | 0.00 | 90 | 1021.0 |
| 20260905060958 | 62 | 158 | 3.0 | 4.0 | 0.00 | 0.00 | 0.00 | 89 | 1021.0 |
| 20260905060454 | 62 | 94 | 2.0 | 4.0 | 0.00 | 0.00 | 0.00 | 89 | 1021.0 |
| 20260905055949 | 62 | 105 | 2.0 | 3.0 | 0.00 | 0.00 | 0.00 | 89 | 1021.1 |
| 20260905055448 | 62 | 130 | 2.0 | 6.0 | 0.00 | 0.00 | 0.00 | 88 | 1021.0 |
| 20260905054943 | 62 | 117 | 2.0 | 4.0 | 0.00 | 0.00 | 0.00 | 89 | 1021.0 |
| 20260905054439 | 62 | 139 | 2.0 | 3.0 | 0.00 | 0.00 | 0.00 | 89 | 1021.2 |
| 20260905053938 | 62 | 112 | 2.0 | 2.0 | 0.00 | 0.00 | 0.00 | 90 | 1021.0 |
| 20260905053433 | 62 | 139 | 2.0 | 2.0 | 0.00 | 0.00 | 0.00 | 90 | 1021.2 |
| 20260905052929 | 62 | 92 | 2.0 | 4.0 | 0.00 | 0.00 | 0.00 | 90 | 1021.2 |
| 20260905052428 | 62 | 172 | 1.0 | 3.0 | 0.00 | 0.00 | 0.00 | 91 | 1021.1 |
| 20260905051928 | 61 | 143 | 1.0 | 3.0 | 0.00 | 0.00 | 0.00 | 92 | 1021.0 |
| 20260905051418 | 61 | 187 | 1.0 | 2.0 | 0.00 | 0.00 | 0.00 | 93 | 1021.1 |
| 20260905050915 | 61 | 146 | 2.0 | 2.0 | 0.00 | 0.00 | 0.00 | 93 | 1021.0 |
| 20260905050411 | 61 | 159 | 1.0 | 2.0 | 0.00 | 0.00 | 0.00 | 94 | 1020.9 |
| 20260905045906 | 61 | 146 | 1.0 | 2.0 | 0.00 | 0.00 | 0.00 | 94 | 1021.2 |
| 20260905045401 | 61 | 112 | 0.0 | 1.0 | 0.00 | 0.00 | 0.00 | 94 | 1021.0 |
| 20260905044856 | 61 | 182 | 0.0 | 2.0 | 0.00 | 0.00 | 0.00 | 95 | 1021.1 |
| 20260905044351 | 61 | 181 | 1.0 | 1.0 | 0.00 | 0.00 | 0.00 | 96 | 1021.1 |
| 20260905043845 | 61 | 182 | 0.0 | 0.0 | 0.00 | 0.00 | 0.00 | 95 | 1021.3 |
| 20260905043339 | 61 | 183 | 0.0 | 0.0 | 0.00 | 0.00 | 0.00 | 94 | 1021.0 |
| 20260905042834 | 61 | 175 | 0.0 | 1.0 | 0.00 | 0.00 | 0.00 | 94 | 1021.2 |
| 20260905042334 | 62 | 123 | 2.0 | 2.0 | 0.00 | 0.00 | 0.00 | 94 | 1020.9 |
| 20260905041829 | 62 | 174 | 0.0 | 0.0 | 0.00 | 0.00 | 0.00 | 93 | 1021.1 |
| 20260905041325 | 62 | 195 | 0.0 | 0.0 | 0.00 | 0.00 | 0.00 | 93 | 1021.1 |
| 20260905040820 | 62 | 189 | 0.0 | 2.0 | 0.00 | 0.00 | 0.00 | 92 | 1020.9 |
| 20260905040319 | 62 | 127 | 2.0 | 3.0 | 0.00 | 0.00 | 0.00 | 92 | 1021.1 |
| 20260905035818 | 62 | 192 | 1.0 | 2.0 | 0.00 | 0.55 | 0.55 | 92 | 1020.9 |
| 20260905035314 | 62 | 168 | 1.0 | 3.0 | 0.00 | 0.55 | 0.55 | 92 | 1020.9 |
| 20260905034811 | 62 | 24 | 1.0 | 2.0 | 0.00 | 0.55 | 0.55 | 94 | 1021.1 |
| 20260905034306 | 62 | 164 | 1.0 | 2.0 | 0.00 | 0.55 | 0.55 | 94 | 1021.0 |
| 20260905033804 | 62 | 193 | 0.0 | 3.0 | 0.00 | 0.55 | 0.55 | 94 | 1020.7 |
| 20260905033300 | 62 | 118 | 2.0 | 4.0 | 0.00 | 0.55 | 0.55 | 95 | 1020.8 |
| 20260905032759 | 62 | 153 | 1.0 | 6.0 | 0.00 | 0.55 | 0.55 | 95 | 1021.0 |
| 20260905032255 | 62 | 171 | 1.0 | 3.0 | 0.00 | 0.55 | 0.55 | 96 | 1020.6 |
| 20260905031750 | 62 | 88 | 3.0 | 6.0 | 0.00 | 0.55 | 0.55 | 97 | 1020.9 |
| 20260905031246 | 62 | 121 | 3.0 | 7.0 | 0.00 | 0.55 | 0.55 | 97 | 1020.8 |
| 20260905030740 | 62 | 121 | 3.0 | 8.0 | 0.00 | 0.55 | 0.55 | 97 | 1020.9 |
| 20260905030236 | 62 | 129 | 1.0 | 3.0 | 0.00 | 0.55 | 0.55 | 97 | 1020.6 |
| 20260905025730 | 62 | 77 | 1.0 | 6.0 | 0.00 | 0.55 | 0.55 | 97 | 1020.6 |
| 20260905025226 | 62 | 111 | 1.0 | 3.0 | 0.00 | 0.55 | 0.55 | 97 | 1020.7 |
| 20260905024721 | 62 | 96 | 5.0 | 6.0 | 0.00 | 0.55 | 0.55 | 98 | 1020.8 |
| 20260905024218 | 62 | 124 | 4.0 | 4.0 | 0.00 | 0.55 | 0.55 | 98 | 1020.5 |
| 20260905023712 | 62 | 152 | 1.0 | 3.0 | 0.00 | 0.55 | 0.55 | 98 | 1020.7 |
| 20260905023212 | 62 | 130 | 2.0 | 3.0 | 0.00 | 0.55 | 0.55 | 99 | 1020.7 |
| 20260905022711 | 62 | 128 | 1.0 | 6.0 | 0.00 | 0.55 | 0.55 | 99 | 1020.8 |
| 20260905022207 | 62 | 142 | 1.0 | 2.0 | 0.00 | 0.55 | 0.55 | 98 | 1020.7 |
| 20260905021707 | 62 | 79 | 2.0 | 2.0 | 0.00 | 0.55 | 0.55 | 98 | 1020.7 |
| 20260905021202 | 62 | 122 | 2.0 | 4.0 | 0.00 | 0.55 | 0.55 | 98 | 1020.9 |
| 20260905020656 | 62 | 150 | 1.0 | 3.0 | 0.00 | 0.55 | 0.55 | 98 | 1020.7 |
| 20260905020146 | 62 | 111 | 3.0 | 4.0 | 0.00 | 0.55 | 0.55 | 97 | 1020.6 |
| 20260905015644 | 63 | 167 | 2.0 | 3.0 | 0.00 | 0.55 | 0.55 | 97 | 1020.7 |
| 20260905015139 | 63 | 137 | 1.0 | 6.0 | 0.00 | 0.55 | 0.55 | 96 | 1020.5 |
| 20260905014632 | 63 | 77 | 1.0 | 3.0 | 0.00 | 0.55 | 0.55 | 95 | 1020.4 |
| 20260905014128 | 63 | 154 | 4.0 | 6.0 | 0.00 | 0.55 | 0.55 | 94 | 1020.3 |
| 20260905013625 | 63 | 115 | 3.0 | 11.0 | 0.00 | 0.55 | 0.55 | 95 | 1020.4 |
| 20260905013120 | 63 | 178 | 2.0 | 4.0 | 0.00 | 0.55 | 0.55 | 96 | 1020.3 |
| 20260905012620 | 63 | 160 | 2.0 | 8.0 | 0.00 | 0.55 | 0.55 | 97 | 1020.2 |
| 20260905012117 | 63 | 136 | 3.0 | 6.0 | 0.00 | 0.55 | 0.55 | 97 | 1020.3 |
| 20260905011612 | 63 | 162 | 2.0 | 4.0 | 0.00 | 0.55 | 0.55 | 98 | 1020.1 |
| 20260905011108 | 63 | 78 | 5.0 | 6.0 | 0.00 | 0.55 | 0.55 | 98 | 1020.1 |
| 20260905010608 | 63 | 117 | 3.0 | 9.0 | 0.00 | 0.55 | 0.55 | 98 | 1020.2 |
| 20260905010104 | 63 | 126 | 2.0 | 6.0 | 0.00 | 0.55 | 0.55 | 97 | 1020.1 |
| 20260905005559 | 63 | 120 | 2.0 | 6.0 | 0.00 | 0.55 | 0.55 | 97 | 1020.0 |
| 20260905005055 | 63 | 135 | 3.0 | 7.0 | 0.00 | 0.55 | 0.55 | 96 | 1020.0 |
| 20260905004549 | 63 | 138 | 3.0 | 4.0 | 0.00 | 0.55 | 0.55 | 96 | 1019.9 |
| 20260905004044 | 63 | 195 | 2.0 | 7.0 | 0.00 | 0.55 | 0.55 | 95 | 1019.7 |
| 20260905003540 | 63 | 168 | 2.0 | 6.0 | 0.00 | 0.55 | 0.55 | 95 | 1019.8 |
| 20260905003037 | 64 | 190 | 2.0 | 4.0 | 0.00 | 0.55 | 0.55 | 95 | 1019.7 |
| 20260905002532 | 64 | 87 | 6.0 | 7.0 | 0.00 | 0.55 | 0.55 | 94 | 1019.6 |
| 20260905002031 | 64 | 154 | 2.0 | 3.0 | 0.00 | 0.55 | 0.55 | 95 | 1019.6 |
| 20260905001526 | 64 | 126 | 1.0 | 6.0 | 0.00 | 0.55 | 0.55 | 95 | 1019.8 |
| 20260905001020 | 64 | 137 | 4.0 | 6.0 | 0.00 | 0.55 | 0.55 | 94 | 1019.8 |
| 20260905000516 | 65 | 88 | 6.0 | 8.0 | 0.00 | 0.55 | 0.55 | 93 | 1019.9 |
| 20260905000012 | 65 | 147 | 3.0 | 7.0 | 0.00 | 0.55 | 0.55 | 92 | 1019.8 |
| 20260904235507 | 65 | 174 | 4.0 | 7.0 | 0.00 | 0.55 | 0.55 | 91 | 1019.8 |
| 20260904235000 | 65 | 61 | 2.0 | 10.0 | 0.00 | 0.55 | 0.55 | 90 | 1019.7 |
| 20260904234455 | 65 | 184 | 3.0 | 8.0 | 0.00 | 0.55 | 0.55 | 89 | 1019.8 |
| 20260904233951 | 65 | 187 | 4.0 | 7.0 | 0.00 | 0.55 | 0.55 | 89 | 1019.6 |
| 20260904233446 | 65 | 104 | 3.0 | 8.0 | 0.00 | 0.55 | 0.55 | 89 | 1019.9 |
| 20260904232942 | 66 | 135 | 3.0 | 7.0 | 0.00 | 0.55 | 0.55 | 88 | 1019.7 |
| 20260904232438 | 66 | 150 | 2.0 | 4.0 | 0.00 | 0.55 | 0.55 | 88 | 1019.8 |
| 20260904231935 | 66 | 126 | 4.0 | 7.0 | 0.00 | 0.55 | 0.55 | 87 | 1019.6 |
| 20260904231429 | 66 | 88 | 3.0 | 8.0 | 0.00 | 0.55 | 0.55 | 87 | 1019.8 |
| 20260904230925 | 66 | 214 | 4.0 | 8.0 | 0.00 | 0.55 | 0.55 | 87 | 1019.7 |
| 20260904230424 | 67 | 183 | 4.0 | 13.0 | 0.00 | 0.55 | 0.55 | 86 | 1019.6 |
| 20260904225919 | 67 | 112 | 3.0 | 9.0 | 0.00 | 0.55 | 0.55 | 86 | 1019.7 |
| 20260904225417 | 67 | 173 | 5.0 | 7.0 | 0.00 | 0.55 | 0.55 | 85 | 1019.6 |
| 20260904224916 | 67 | 114 | 2.0 | 6.0 | 0.00 | 0.55 | 0.55 | 86 | 1019.7 |
| 20260904224412 | 66 | 178 | 4.0 | 8.0 | 0.00 | 0.55 | 0.55 | 87 | 1019.6 |
| 20260904223907 | 67 | 105 | 6.0 | 9.0 | 0.00 | 0.55 | 0.55 | 85 | 1019.6 |
| 20260904223406 | 67 | 102 | 3.0 | 7.0 | 0.00 | 0.55 | 0.55 | 86 | 1019.4 |
| 20260904222903 | 67 | 111 | 5.0 | 10.0 | 0.00 | 0.55 | 0.55 | 85 | 1019.3 |
| 20260904222402 | 67 | 193 | 4.0 | 9.0 | 0.00 | 0.55 | 0.55 | 85 | 1019.4 |
| 20260904221902 | 67 | 108 | 4.0 | 16.0 | 0.00 | 0.55 | 0.55 | 85 | 1019.4 |
| 20260904221357 | 68 | 75 | 3.0 | 7.0 | 0.00 | 0.55 | 0.55 | 84 | 1019.4 |
| 20260904220852 | 68 | 111 | 5.0 | 9.0 | 0.00 | 0.55 | 0.55 | 84 | 1019.4 |
| 20260904220351 | 68 | 173 | 3.0 | 6.0 | 0.00 | 0.55 | 0.55 | 84 | 1019.1 |
| 20260904215847 | 68 | 32 | 4.0 | 8.0 | 0.00 | 0.55 | 0.55 | 85 | 1019.3 |
| 20260904215342 | 68 | 109 | 7.0 | 11.0 | 0.00 | 0.55 | 0.55 | 85 | 1019.4 |
| 20260904214838 | 68 | 108 | 2.0 | 7.0 | 0.00 | 0.55 | 0.55 | 86 | 1019.2 |
| 20260904214333 | 68 | 85 | 4.0 | 9.0 | 0.00 | 0.55 | 0.55 | 86 | 1019.2 |